TimeEDT,TemperatureF,Dew PointF,Humidity,Sea Level PressureIn,VisibilityMPH,Wind Direction,Wind SpeedMPH,Gust SpeedMPH,PrecipitationIn,Events,Conditions,WindDirDegrees,DateUTC
12:15 AM,68.0,66.2,94,29.88,8.0,WSW,9.2,-,N/A,,Overcast,240,2013-08-31 04:15:00
12:35 AM,68.0,66.2,94,29.88,8.0,WSW,10.4,17.3,N/A,,Overcast,240,2013-08-31 04:35:00
12:55 AM,68.0,66.2,94,29.88,8.0,WSW,12.7,-,N/A,,Overcast,240,2013-08-31 04:55:00
1:15 AM,68.0,66.2,94,29.87,8.0,SW,10.4,18.4,N/A,,Overcast,230,2013-08-31 05:15:00
1:35 AM,68.0,66.2,94,29.87,7.0,SW,12.7,19.6,N/A,,Overcast,230,2013-08-31 05:35:00
1:55 AM,68.0,68.0,100,29.87,7.0,SW,11.5,-,N/A,,Overcast,230,2013-08-31 05:55:00
2:15 AM,68.0,68.0,100,29.86,7.0,WSW,11.5,20.7,N/A,,Overcast,240,2013-08-31 06:15:00
2:35 AM,68.0,68.0,100,29.86,7.0,WSW,11.5,-,N/A,,Overcast,240,2013-08-31 06:35:00
2:55 AM,68.0,68.0,100,29.85,7.0,SW,18.4,21.9,N/A,,Overcast,230,2013-08-31 06:55:00
3:15 AM,68.0,68.0,100,29.85,7.0,WSW,16.1,-,N/A,,Overcast,240,2013-08-31 07:15:00
3:35 AM,68.0,68.0,100,29.85,7.0,WSW,16.1,23.0,N/A,,Overcast,240,2013-08-31 07:35:00
3:55 AM,68.0,68.0,100,29.86,7.0,WSW,15.0,19.6,N/A,,Overcast,250,2013-08-31 07:55:00
4:15 AM,68.0,68.0,100,29.86,7.0,SW,16.1,23.0,N/A,,Overcast,230,2013-08-31 08:15:00
4:35 AM,68.0,68.0,100,29.86,7.0,WSW,12.7,19.6,N/A,,Overcast,240,2013-08-31 08:35:00
4:55 AM,68.0,68.0,100,29.86,6.0,WSW,13.8,18.4,N/A,,Overcast,240,2013-08-31 08:55:00
5:15 AM,68.0,68.0,100,29.86,6.0,WSW,12.7,20.7,N/A,,Overcast,240,2013-08-31 09:15:00
5:35 AM,68.0,68.0,100,29.86,7.0,WSW,17.3,21.9,N/A,,Overcast,240,2013-08-31 09:35:00
5:55 AM,68.0,68.0,100,29.86,5.0,WSW,16.1,19.6,N/A,,Overcast,250,2013-08-31 09:55:00
6:15 AM,68.0,68.0,100,29.86,5.0,WSW,15.0,21.9,N/A,,Overcast,240,2013-08-31 10:15:00
6:35 AM,68.0,68.0,100,29.86,3.0,WSW,15.0,21.9,N/A,,Overcast,250,2013-08-31 10:35:00
6:55 AM,69.8,68.0,94,29.86,4.0,WSW,13.8,18.4,N/A,,Overcast,240,2013-08-31 10:55:00
7:15 AM,69.8,68.0,94,29.86,5.0,WSW,15.0,21.9,N/A,,Overcast,240,2013-08-31 11:15:00
7:35 AM,69.8,68.0,94,29.87,5.0,WSW,13.8,23.0,N/A,,Overcast,240,2013-08-31 11:35:00
7:55 AM,69.8,68.0,94,29.87,5.0,WSW,11.5,20.7,N/A,,Overcast,240,2013-08-31 11:55:00
8:15 AM,69.8,68.0,94,29.87,6.0,WSW,12.7,19.6,N/A,,Overcast,240,2013-08-31 12:15:00
8:35 AM,71.6,68.0,88,29.87,7.0,WSW,13.8,20.7,N/A,,Overcast,240,2013-08-31 12:35:00
8:55 AM,71.6,68.0,88,29.87,7.0,WSW,13.8,-,N/A,,Overcast,240,2013-08-31 12:55:00
9:15 AM,71.6,68.0,88,29.87,7.0,WSW,17.3,20.7,N/A,,Overcast,240,2013-08-31 13:15:00
9:35 AM,71.6,68.0,88,29.87,8.0,WSW,18.4,26.5,N/A,,Overcast,240,2013-08-31 13:35:00
9:55 AM,71.6,68.0,88,29.88,8.0,WSW,16.1,24.2,N/A,,Overcast,240,2013-08-31 13:55:00
10:15 AM,71.6,68.0,88,29.88,8.0,WSW,17.3,23.0,N/A,,Overcast,240,2013-08-31 14:15:00
10:35 AM,71.6,68.0,88,29.88,8.0,WSW,16.1,21.9,N/A,,Overcast,240,2013-08-31 14:35:00
10:55 AM,73.4,68.0,83,29.88,8.0,SW,15.0,20.7,N/A,,Overcast,230,2013-08-31 14:55:00
11:15 AM,73.4,68.0,83,29.88,9.0,WSW,13.8,20.7,N/A,,Overcast,240,2013-08-31 15:15:00
11:35 AM,73.4,68.0,83,29.87,8.0,SW,13.8,21.9,N/A,,Overcast,230,2013-08-31 15:35:00
11:55 AM,73.4,68.0,83,29.87,10.0,WSW,13.8,23.0,N/A,,Overcast,240,2013-08-31 15:55:00
12:15 PM,73.4,68.0,83,29.87,9.0,SW,15.0,21.9,N/A,,Overcast,230,2013-08-31 16:15:00
12:35 PM,71.6,68.0,88,29.88,7.0,WSW,16.1,21.9,N/A,,Overcast,240,2013-08-31 16:35:00
12:55 PM,71.6,68.0,88,29.87,7.0,SW,17.3,25.3,N/A,,Overcast,230,2013-08-31 16:55:00
1:15 PM,73.4,68.0,83,29.87,8.0,WSW,13.8,23.0,N/A,,Overcast,240,2013-08-31 17:15:00
1:35 PM,73.4,68.0,83,29.87,7.0,WSW,17.3,26.5,N/A,,Mostly Cloudy,240,2013-08-31 17:35:00
1:55 PM,73.4,68.0,83,29.87,8.0,SW,16.1,23.0,N/A,,Overcast,230,2013-08-31 17:55:00
2:15 PM,73.4,68.0,83,29.86,9.0,SW,17.3,27.6,N/A,,Overcast,230,2013-08-31 18:15:00
2:35 PM,73.4,68.0,83,29.87,9.0,SW,18.4,24.2,N/A,,Overcast,230,2013-08-31 18:35:00
2:55 PM,73.4,68.0,83,29.86,9.0,SW,16.1,26.5,N/A,,Overcast,230,2013-08-31 18:55:00
3:15 PM,73.4,68.0,83,29.86,9.0,WSW,13.8,19.6,N/A,,Overcast,240,2013-08-31 19:15:00
3:35 PM,73.4,68.0,83,29.86,8.0,SW,16.1,21.9,N/A,,Overcast,230,2013-08-31 19:35:00
3:55 PM,71.6,68.0,88,29.86,7.0,SW,15.0,28.8,N/A,,Overcast,230,2013-08-31 19:55:00
4:15 PM,71.6,69.8,94,29.86,7.0,SW,17.3,21.9,N/A,,Overcast,230,2013-08-31 20:15:00
4:35 PM,71.6,69.8,94,29.86,7.0,WSW,16.1,20.7,N/A,,Overcast,240,2013-08-31 20:35:00
4:55 PM,71.6,69.8,94,29.86,7.0,SW,17.3,21.9,N/A,,Overcast,230,2013-08-31 20:55:00
5:15 PM,71.6,69.8,94,29.86,8.0,SW,13.8,19.6,N/A,,Overcast,230,2013-08-31 21:15:00
5:35 PM,71.6,69.8,94,29.86,8.0,SW,13.8,24.2,N/A,,Overcast,230,2013-08-31 21:35:00
5:55 PM,71.6,69.8,94,29.86,8.0,SW,13.8,-,N/A,,Overcast,230,2013-08-31 21:55:00
6:15 PM,71.6,69.8,94,29.85,8.0,SW,13.8,-,N/A,,Overcast,230,2013-08-31 22:15:00
6:35 PM,71.6,69.8,94,29.85,8.0,SW,15.0,-,N/A,,Overcast,230,2013-08-31 22:35:00
6:55 PM,71.6,69.8,94,29.86,9.0,SW,15.0,19.6,N/A,,Overcast,230,2013-08-31 22:55:00
7:15 PM,71.6,68.0,88,29.86,8.0,SW,13.8,20.7,N/A,,Overcast,230,2013-08-31 23:15:00
7:35 PM,71.6,68.0,88,29.86,10.0,SW,13.8,18.4,N/A,,Overcast,220,2013-08-31 23:35:00
7:55 PM,71.6,68.0,88,29.86,10.0,SW,15.0,19.6,N/A,,Overcast,220,2013-08-31 23:55:00
8:15 PM,71.6,68.0,88,29.87,10.0,SW,15.0,20.7,N/A,,Overcast,220,2013-09-01 00:15:00
8:35 PM,71.6,68.0,88,29.86,10.0,SW,17.3,21.9,N/A,,Overcast,220,2013-09-01 00:35:00
8:55 PM,71.6,68.0,88,29.87,10.0,SW,11.5,18.4,N/A,,Overcast,220,2013-09-01 00:55:00
9:15 PM,71.6,68.0,88,29.88,10.0,WSW,15.0,21.9,N/A,,Overcast,240,2013-09-01 01:15:00
9:35 PM,71.6,68.0,88,29.88,10.0,WSW,11.5,-,N/A,,Overcast,240,2013-09-01 01:35:00
9:55 PM,71.6,68.0,88,29.88,10.0,SW,12.7,17.3,N/A,,Overcast,230,2013-09-01 01:55:00
10:15 PM,71.6,68.0,88,29.88,10.0,SW,11.5,20.7,N/A,,Overcast,220,2013-09-01 02:15:00
10:35 PM,71.6,68.0,88,29.88,10.0,SW,13.8,23.0,N/A,,Overcast,230,2013-09-01 02:35:00
10:55 PM,71.6,68.0,88,29.88,10.0,SW,15.0,24.2,N/A,,Overcast,230,2013-09-01 02:55:00
11:15 PM,71.6,68.0,88,29.88,10.0,SW,15.0,-,N/A,,Overcast,220,2013-09-01 03:15:00
11:35 PM,71.6,68.0,88,29.88,10.0,SW,13.8,19.6,N/A,,Overcast,230,2013-09-01 03:35:00
11:55 PM,71.6,68.0,88,29.88,10.0,SW,16.1,21.9,N/A,,Overcast,230,2013-09-01 03:55:00